User: anonymous   Login
Location: Unspecified
(0.0000°N, 0.0000°E)
Time: 22:30:15
(UTC+00:00)
Language:

AEHF 1 (USA 214) - Orbit

View from above orbital plane
View from above orbital plane
View from above satellite
View from above satellite

Ground track
Ground track

The orbit data is extracted from the following two-line orbital elements,

1 36868U 10039A   20047.79433265  .00000011  00000-0  00000+0 0  9997
2 36868   2.4595  99.9870 0003037 260.2431  75.9913  1.00275045 35254
Epoch (UTC): 16 February 2020 19:03:50
Eccentricity: 0.0003037
inclination: 2.4595°
perigee height: 35772 km
apogee height: 35798 km
right ascension of ascending node: 99.9870°
argument of perigee: 260.2431°
revolutions per day: 1.00275045
mean anomaly at epoch: 75.9913°
orbit number at epoch: 3525

The dashed part of the orbit path shows where the satellite is in the earth's shadow,  

DLR